Regional Weather Roundup
Issued by NWS

Home | Current Version | Previous Version | Text Only | Print | Product List | Glossary Off
Versions: 1 2 3 4 5 6 7 8 9 10 11 12 13 14 15 16 17 18 19 20 21 22 23 24 25 26 27 28 29 30 31 32 33 34 35 36 37 38 39 40 41 42 43 44 45 46 47 48 49 50

000
ASUS45 KBOI 261710
RWRID

IDAHO REGIONAL WEATHER ROUNDUP
NATIONAL WEATHER SERVICE BOISE ID
1100 AM MDT TUE MAY 26 2015

NOTE: "FAIR" INDICATES FEW OR NO CLOUDS BELOW 12000 FEET
WITH NO SIGNIFICANT WEATHER AND/OR OBSTRUCTIONS TO VISIBILITY

IDZ012-014-261800-
SOUTHWEST IDAHO


CITY           SKY/WX    TMP DP  RH WIND       PRES   REMARKS
BOISE          SUNNY     66  49  54 CALM      29.96S
CALDWELL       MOSUNNY   64  45  48 W3        29.97S
$$

IDZ016-017-261800-
SOUTHCENTRAL IDAHO


CITY           SKY/WX    TMP DP  RH WIND       PRES   REMARKS
BURLEY         CLOUDY    62  46  55 VRB5      30.00S
JEROME         MOSUNNY   60  46  59 VRB3      30.01S
TWIN FALLS     MOSUNNY   65  47  52 VRB5      29.98S
$$

IDZ019>023-261800-
SOUTHEAST IDAHO


CITY           SKY/WX    TMP DP  RH WIND       PRES   REMARKS
IDAHO FALLS    PTSUNNY   60  46  59 SW14G22   30.03R
POCATELLO      LGT RAIN  57  50  77 W10       30.03R
REXBURG        CLOUDY    60  48  64 SW12G18   30.02S
$$

IDZ006-010-011-018-031-032-261800-
CENTRAL IDAHO MOUNTAINS


CITY           SKY/WX    TMP DP  RH WIND       PRES   REMARKS
MCCALL         SUNNY     57  44  62 CALM      29.99S
HAILEY         MOSUNNY   57  48  72 SE10      30.04S
STANLEY          N/A     46  40  79 N7        30.08S
SALMON         MOSUNNY   57  46  67 NE5       29.99F
CHALLIS        SUNNY     59  41  51 VRB5      30.01S
$$

IDZ002-004-006-007-026-261800-
NORTHERN IDAHO


CITY           SKY/WX    TMP DP  RH WIND       PRES   REMARKS
LEWISTON       MOSUNNY   66  51  58 VRB6      29.95F
LOWELL           N/A     63  48  58 CALM      29.97F
COEUR D`ALENE  MOSUNNY   59  48  67 CALM      29.97F
MULLAN PASS    PTSUNNY   45  41  86 VRB5      30.03R
$$


USA.gov is the U.S. government's official web portal to all federal, state and local government web resources and services.